EW4711 Weather Reports


Display with metric or nautical units.
time (UTC)temp
F
wind
direction
speed
MPH
gust
MPH
rain 1hr
in
rain 24hr
in
rain mn
in
humidity
%
barometer
mb
20260902235603 70 23 2.0 5.0 0.26 1.72 1.72 96 1010.5
20260902234603 70 14 2.0 9.0 0.25 1.70 1.70 96 1011.3
20260902234102 70 355 3.0 13.0 0.24 1.69 1.69 95 1011.5
20260902233603 70 10 3.0 13.0 0.23 1.68 1.68 95 1012.0
20260902233104 71 10 5.0 16.0 0.21 1.66 1.66 94 1012.5
20260902232603 71 12 7.0 16.0 0.19 1.64 1.64 93 1012.7
20260902231603 73 30 5.0 16.0 0.16 1.61 1.61 93 1012.6
20260902231103 74 2 10.0 20.0 0.13 1.58 1.58 92 1012.3
20260902230603 74 325 8.0 14.0 0.04 1.49 1.49 91 1013.2
20260902225103 76 8 2.0 3.0 0.01 1.46 1.46 88 1011.5
20260902224603 77 20 4.0 12.0 0.00 1.45 1.45 86 1011.5
20260902224103 77 352 3.0 12.0 0.00 1.45 1.45 86 1011.2
20260902223603 78 23 6.0 13.0 0.00 1.45 1.45 86 1011.0
20260902223103 79 355 5.0 20.0 0.00 1.45 1.45 85 1010.6
20260902222603 80 353 13.0 26.0 0.00 1.45 1.45 85 1010.8
20260902222103 81 340 8.0 14.0 0.00 1.45 1.45 87 1010.6
20260902221603 82 223 2.0 10.0 0.00 1.45 1.45 87 1009.4
20260902221104 82 224 2.0 6.0 0.00 1.45 1.45 87 1009.5
20260902220603 82 227 2.0 5.0 0.00 1.45 1.45 87 1009.7
20260902215603 83 226 1.0 5.0 0.00 1.45 1.45 86 1009.4
20260902215103 83 222 1.0 8.0 0.00 1.45 1.45 85 1009.4
20260902214603 83 236 2.0 8.0 0.00 1.45 1.45 86 1009.2
20260902214103 83 240 2.0 8.0 0.00 1.45 1.45 86 1009.1
20260902213603 83 198 1.0 3.0 0.00 1.45 1.45 86 1009.2
20260902213103 83 290 2.0 9.0 0.00 1.45 1.45 85 1009.2
20260902212603 83 239 2.0 6.0 0.00 1.45 1.45 86 1009.4
20260902212103 83 238 1.0 6.0 0.00 1.45 1.45 86 1010.0
20260902211603 83 275 3.0 9.0 0.00 1.45 1.45 86 1010.1
20260902211103 82 244 2.0 8.0 0.00 1.45 1.45 88 1010.5
20260902210602 82 300 2.0 5.0 0.00 1.45 1.45 88 1010.5
20260902205603 81 310 2.0 7.0 0.00 1.45 1.45 88 1010.5
20260902205103 81 256 2.0 10.0 0.00 1.45 1.45 87 1010.7
20260902204603 81 273 0.0 3.0 0.00 1.45 1.45 88 1010.8
20260902204103 81 280 2.0 8.0 0.00 1.45 1.45 87 1010.9
20260902203603 81 222 1.0 6.0 0.00 1.45 1.45 87 1010.8
20260902203103 81 282 2.0 12.0 0.00 1.45 1.45 86 1011.0
20260902202603 81 271 2.0 3.0 0.00 1.45 1.45 86 1011.1
20260902202103 82 245 2.0 12.0 0.00 1.45 1.45 85 1011.2
20260902201603 82 277 2.0 8.0 0.00 1.45 1.45 85 1011.3
20260902200603 82 255 2.0 5.0 0.00 1.45 1.45 84 1011.5
20260902200103 83 300 1.0 3.0 0.00 1.45 1.45 84 1011.7
20260902195603 83 245 1.0 8.0 0.00 1.45 1.45 83 1011.8
20260902195103 83 278 3.0 8.0 0.00 1.45 1.45 83 1011.9
20260902194103 84 246 4.0 9.0 0.00 1.45 1.45 82 1011.8
20260902193603 84 290 2.0 6.0 0.00 1.45 1.45 83 1012.0
20260902193103 84 304 2.0 12.0 0.00 1.45 1.45 83 1012.1
20260902192603 83 306 2.0 8.0 0.00 1.45 1.45 84 1012.1
20260902191603 83 293 3.0 5.0 0.00 1.45 1.45 83 1012.1
20260902191103 83 295 3.0 7.0 0.00 1.45 1.45 85 1011.9
20260902190603 82 255 2.0 9.0 0.00 1.45 1.45 84 1012.0
20260902185603 83 292 3.0 10.0 0.00 1.45 1.45 84 1012.1
20260902184603 83 298 3.0 10.0 0.00 1.45 1.45 83 1012.0
20260902184103 83 280 2.0 9.0 0.00 1.45 1.45 84 1012.0
20260902183603 82 280 2.0 3.0 0.00 1.45 1.45 85 1012.1
20260902182603 82 315 2.0 7.0 0.00 1.45 1.45 86 1012.4
20260902182103 81 299 2.0 7.0 0.00 1.45 1.45 86 1012.4
20260902181603 81 264 4.0 13.0 0.00 1.45 1.45 85 1012.2
20260902181103 81 306 2.0 9.0 0.00 1.45 1.45 86 1012.3
20260902180603 81 314 3.0 12.0 0.00 1.45 1.45 87 1012.3
20260902180104 80 230 2.0 13.0 0.00 1.45 1.45 87 1012.2
20260902175102 80 259 3.0 9.0 0.00 1.45 1.45 87 1012.4
20260902174603 80 284 2.0 7.0 0.00 1.45 1.45 89 1012.5
20260902173603 78 289 2.0 6.0 0.00 1.45 1.45 90 1012.6
20260902173103 78 272 3.0 10.0 0.00 1.45 1.45 90 1012.8
20260902172603 78 246 2.0 8.0 0.00 1.45 1.45 90 1012.8
20260902172103 78 247 2.0 5.0 0.00 1.45 1.45 91 1012.9
20260902171103 77 262 2.0 8.0 0.00 1.45 1.45 89 1012.6
20260902170603 77 225 2.0 8.0 0.00 1.45 1.45 89 1012.4
20260902170103 78 276 1.0 3.0 0.00 1.45 1.45 88 1012.7
20260902165603 78 294 2.0 8.0 0.00 1.45 1.45 88 1013.3
20260902164603 79 343 2.0 12.0 0.00 1.45 1.45 86 1014.1
20260902164103 80 307 5.0 16.0 0.00 1.45 1.45 85 1014.3
20260902163602 80 294 7.0 16.0 0.00 1.45 1.45 84 1014.1
20260902163103 81 309 5.0 12.0 0.00 1.45 1.45 86 1013.6
20260902162603 81 294 2.0 10.0 0.00 1.45 1.45 85 1013.2
20260902162103 81 312 2.0 8.0 0.00 1.45 1.45 86 1012.9
20260902161604 81 257 1.0 9.0 0.00 1.45 1.45 86 1012.8
20260902161103 81 262 4.0 12.0 0.00 1.45 1.45 86 1012.8
20260902160603 80 251 2.0 9.0 0.00 1.45 1.45 86 1012.9
20260902155602 80 233 4.0 13.0 0.00 1.45 1.45 86 1012.9
20260902155103 80 277 3.0 8.0 0.00 1.45 1.45 87 1013.1
20260902154603 79 278 3.0 12.0 0.00 1.45 1.45 88 1013.1
20260902153603 78 255 3.0 8.0 0.00 1.45 1.45 91 1013.1
20260902153103 78 283 2.0 9.0 0.00 1.45 1.45 92 1013.2
20260902151603 76 247 2.0 9.0 0.00 1.45 1.45 97 1013.3
20260902151102 75 251 3.0 9.0 0.00 1.45 1.45 98 1013.5
20260902150603 74 263 3.0 10.0 0.00 1.45 1.45 99 1013.5
20260902150103 74 259 1.0 9.0 0.00 1.45 1.45 100 1013.6
20260902145603 73 264 1.0 6.0 0.00 1.45 1.45 100 1013.6
20260902145103 73 223 2.0 10.0 0.00 1.45 1.45 100 1013.7
20260902144103 71 211 1.0 8.0 0.00 1.45 1.45 100 1013.9
20260902143603 70 231 2.0 5.0 0.00 1.45 1.45 99 1014.0
20260902143103 70 215 1.0 2.0 0.00 1.45 1.45 99 1014.2
20260902142605 70 260 1.0 5.0 0.00 1.45 1.45 100 1014.2
20260902142103 70 214 1.0 3.0 0.00 1.45 1.45 100 1014.3
20260902141603 69 211 0.0 3.0 0.00 1.45 1.45 99 1014.3
20260902141103 69 203 1.0 3.0 0.00 1.45 1.45 99 1014.5
20260902140603 69 216 1.0 3.0 0.00 1.45 1.45 99 1014.4
20260902135103 68 229 1.0 2.0 0.00 1.45 1.45 99 1014.4
20260902134603 68 222 0.0 2.0 0.00 1.45 1.45 99 1014.4
20260902134103 68 215 1.0 5.0 0.00 1.45 1.45 99 1014.4
20260902133103 68 188 2.0 5.0 0.00 1.45 1.45 99 1014.2
20260902132103 68 168 3.0 6.0 0.01 1.45 1.45 99 1014.2
20260902131603 68 168 2.0 8.0 0.01 1.45 1.45 99 1014.1
20260902130603 68 206 1.0 3.0 0.18 1.45 1.45 99 1014.4
20260902130103 68 180 1.0 5.0 0.39 1.45 1.45 99 1014.4
20260902125604 68 220 0.0 5.0 0.52 1.45 1.45 99 1014.3
20260902125103 68 180 0.0 7.0 0.57 1.45 1.45 99 1014.3
20260902124603 69 176 0.0 0.0 0.79 1.45 1.45 99 1014.4
20260902124103 68 163 0.0 0.0 1.14 1.45 1.45 99 1014.6
20260902123604 68 160 0.0 0.0 1.29 1.45 1.45 99 1014.6
20260902122603 68 152 0.0 3.0 1.45 1.45 1.45 99 1014.6
20260902122103 68 173 2.0 7.0 1.44 1.44 1.44 99 1014.5
20260902121603 68 172 4.0 8.0 1.44 1.44 1.44 99 1014.5
20260902121103 68 115 2.0 6.0 1.43 1.43 1.43 99 1014.8
20260902120604 68 111 2.0 7.0 1.27 1.27 1.27 99 1014.7
20260902115604 68 76 4.0 10.0 0.93 0.93 0.93 98 1014.6
20260902115103 69 107 5.0 15.0 0.88 0.88 0.88 98 1014.3
20260902114603 69 87 7.0 14.0 0.66 0.66 0.66 98 1014.6
20260902114103 71 23 3.0 12.0 0.31 0.31 0.31 99 1014.8
20260902113603 72 28 5.0 12.0 0.16 0.16 0.16 99 1012.9
20260902113103 72 306 2.0 3.0 0.00 0.00 0.00 99 1012.1
20260902112603 72 239 1.0 8.0 0.00 0.00 0.00 99 1011.7
20260902112103 72 259 2.0 9.0 0.00 0.00 0.00 99 1012.0
20260902111602 72 262 2.0 7.0 0.00 0.00 0.00 99 1012.0
20260902111103 72 248 2.0 6.0 0.00 0.00 0.00 99 1011.9
20260902110603 72 240 2.0 9.0 0.00 0.00 0.00 99 1011.7
20260902110103 72 232 2.0 5.0 0.00 0.00 0.00 99 1011.5
20260902105603 72 242 2.0 9.0 0.00 0.00 0.00 99 1011.7
20260902105103 72 230 1.0 5.0 0.00 0.00 0.00 99 1011.7
20260902104603 72 246 1.0 5.0 0.00 0.00 0.00 99 1011.5
20260902103603 72 216 2.0 6.0 0.00 0.00 0.00 99 1011.6
20260902103104 72 238 2.0 8.0 0.00 0.00 0.00 99 1011.4
20260902102602 72 245 1.0 3.0 0.00 0.00 0.00 99 1011.4
20260902102103 72 214 2.0 3.0 0.00 0.00 0.00 99 1011.6
20260902101604 72 216 2.0 3.0 0.00 0.00 0.00 99 1011.8
20260902101103 72 229 1.0 3.0 0.00 0.00 0.00 99 1011.8
20260902100603 72 249 1.0 3.0 0.00 0.00 0.00 99 1011.9
20260902095603 72 222 1.0 3.0 0.00 0.00 0.00 99 1011.6
20260902095103 72 232 1.0 3.0 0.00 0.00 0.00 99 1011.7
20260902094603 72 235 1.0 3.0 0.00 0.00 0.00 99 1011.7
20260902094103 72 233 1.0 7.0 0.00 0.00 0.00 99 1011.8
20260902093603 71 240 2.0 3.0 0.00 0.00 0.00 99 1011.9
20260902093103 71 261 1.0 3.0 0.00 0.00 0.00 99 1012.2
20260902091603 71 218 1.0 3.0 0.00 0.00 0.00 99 1012.6
20260902091103 71 216 1.0 3.0 0.00 0.00 0.00 99 1012.6
20260902085603 71 235 1.0 3.0 0.00 0.00 0.00 99 1012.7
20260902084603 71 249 1.0 3.0 0.00 0.00 0.00 99 1012.8
20260902084103 71 249 1.0 3.0 0.00 0.00 0.00 99 1012.7
20260902083604 71 230 1.0 3.0 0.00 0.00 0.00 99 1012.8
20260902083103 71 262 1.0 3.0 0.00 0.00 0.00 99 1012.7
20260902082103 71 226 2.0 3.0 0.00 0.00 0.00 99 1012.7
20260902081103 71 224 1.0 5.0 0.00 0.00 0.00 99 1013.1
20260902080603 71 236 2.0 5.0 0.00 0.00 0.00 99 1013.2
20260902075603 71 225 2.0 3.0 0.00 0.00 0.00 99 1013.2
20260902074603 71 228 1.0 3.0 0.00 0.01 0.00 99 1013.0
20260902074103 70 213 1.0 2.0 0.00 0.01 0.00 99 1013.0
20260902073604 70 213 1.0 3.0 0.00 0.01 0.00 99 1013.1
20260902073104 70 192 1.0 3.0 0.00 0.01 0.00 99 1013.3
20260902072605 70 235 1.0 2.0 0.00 0.01 0.00 99 1013.3
20260902072103 70 196 0.0 1.0 0.00 0.01 0.00 99 1013.3
20260902070603 70 217 1.0 5.0 0.00 0.01 0.00 99 1013.6
20260902065103 70 234 1.0 3.0 0.00 0.01 0.00 99 1013.6
20260902064103 71 184 1.0 3.0 0.00 0.01 0.00 99 1013.5
20260902063603 71 195 1.0 3.0 0.00 0.01 0.00 99 1013.5
20260902063103 71 212 1.0 2.0 0.00 0.01 0.00 98 1013.5
20260902062604 71 209 0.0 3.0 0.00 0.01 0.00 98 1013.5
20260902062103 71 197 1.0 3.0 0.00 0.01 0.00 98 1013.4
20260902061603 71 186 1.0 3.0 0.00 0.01 0.00 99 1013.4
20260902061104 71 181 1.0 3.0 0.00 0.01 0.00 99 1013.4
20260902060604 71 184 1.0 3.0 0.00 0.01 0.00 99 1013.6
20260902055603 71 205 0.0 3.0 0.00 0.01 0.00 99 1013.7
20260902055103 71 200 0.0 5.0 0.00 0.01 0.00 99 1013.6
20260902054603 71 182 1.0 3.0 0.00 0.01 0.00 98 1013.7
20260902054103 71 170 1.0 3.0 0.00 0.01 0.00 98 1013.5
20260902053603 71 196 2.0 6.0 0.00 0.01 0.00 98 1013.4
20260902053103 71 173 2.0 7.0 0.00 0.01 0.00 98 1013.3
20260902052603 71 170 2.0 3.0 0.00 0.01 0.00 98 1013.4
20260902052104 71 174 1.0 2.0 0.00 0.01 0.00 98 1013.6
20260902051603 71 177 1.0 3.0 0.00 0.01 0.00 98 1013.6
20260902051104 71 184 1.0 3.0 0.00 0.01 0.00 98 1013.6
20260902045103 71 160 2.0 3.0 0.00 0.01 0.00 98 1013.6
20260902044603 71 187 1.0 3.0 0.00 0.01 0.00 98 1013.6
20260902044103 71 170 0.0 2.0 0.00 0.01 0.00 98 1013.7
20260902043103 71 184 0.0 0.0 0.00 0.01 0.00 98 1013.6
20260902042603 71 184 0.0 1.0 0.00 0.01 0.00 98 1013.7
20260902042104 71 184 0.0 2.0 0.00 0.01 0.00 98 1013.5
20260902041603 71 176 0.0 3.0 0.00 0.01 0.00 98 1013.4
20260902041104 72 166 1.0 2.0 0.00 0.01 0.00 98 1013.4
20260902040103 72 178 1.0 3.0 0.00 0.01 0.00 98 1013.4
20260902035603 72 181 1.0 2.0 0.00 0.01 0.01 98 1013.4
20260902035104 72 181 1.0 2.0 0.00 0.01 0.01 98 1013.4
20260902034603 72 181 1.0 1.0 0.00 0.01 0.01 98 1013.4
20260902034103 72 181 0.0 1.0 0.00 0.01 0.01 98 1013.4
20260902033603 72 181 0.0 3.0 0.00 0.01 0.01 98 1013.3
20260902033103 72 172 1.0 2.0 0.00 0.01 0.01 98 1013.4
20260902032603 72 171 1.0 3.0 0.00 0.01 0.01 98 1013.3
20260902032103 72 167 1.0 3.0 0.00 0.01 0.01 97 1013.3
20260902031603 73 165 1.0 2.0 0.00 0.01 0.01 97 1013.3
20260902031104 73 177 1.0 3.0 0.00 0.01 0.01 98 1013.3
20260902030603 73 166 1.0 3.0 0.00 0.01 0.01 98 1013.3
20260902030104 73 158 2.0 3.0 0.00 0.01 0.01 98 1013.3
20260902025604 73 167 2.0 3.0 0.00 0.01 0.01 97 1013.4
20260902025104 73 170 1.0 3.0 0.00 0.01 0.01 97 1013.4
20260902024603 73 161 2.0 3.0 0.00 0.01 0.01 97 1013.4
20260902024103 73 167 2.0 3.0 0.00 0.01 0.01 97 1013.4
20260902023603 74 171 1.0 3.0 0.00 0.01 0.01 97 1013.4
20260902022603 74 165 1.0 3.0 0.00 0.01 0.01 97 1013.4
20260902021603 73 176 2.0 3.0 0.00 0.01 0.01 97 1013.5
20260902021103 73 170 2.0 3.0 0.00 0.01 0.01 97 1013.4
20260902020603 73 166 2.0 3.0 0.00 0.01 0.01 97 1013.4
20260902014103 74 156 1.0 3.0 0.00 0.01 0.01 96 1013.4
20260902013603 74 145 1.0 3.0 0.00 0.01 0.01 96 1013.4
20260902012604 74 116 2.0 3.0 0.00 0.06 0.01 96 1013.5
20260902012103 74 137 2.0 3.0 0.00 0.07 0.01 96 1013.4
20260902011104 74 149 1.0 2.0 0.00 0.07 0.01 96 1013.3
20260902010603 74 153 1.0 3.0 0.00 0.07 0.01 95 1013.3
20260902005603 75 127 1.0 2.0 0.00 0.07 0.01 95 1013.1
20260902005103 75 144 0.0 0.0 0.00 0.07 0.01 95 1013.1
20260902004604 75 144 0.0 0.0 0.00 0.07 0.01 95 1012.9
20260902004104 75 144 2.0 3.0 0.00 0.07 0.01 94 1013.0
20260902003604 75 129 1.0 3.0 0.00 0.07 0.01 94 1012.9
20260902003104 75 128 2.0 3.0 0.00 0.07 0.01 94 1012.8
20260902002604 76 123 1.0 3.0 0.00 0.07 0.01 94 1012.8
20260902001603 76 116 0.0 2.0 0.00 0.07 0.01 93 1012.7
20260902000604 77 116 1.0 3.0 0.00 0.07 0.01 93 1012.6